When you browse on this site, cookies collect data to enhance your experience and personalize the content and advertising you see.
Visit our Privacy Policy to learn more. By continuing to use the site, you agree to this use of cookies and data.
  • In Switzerland
  • List of Countries
  • For 7 days
  • Water Temperature
  • Weather Map
  • Weather Widgets
  • user-avatar
    Login

    Hourly Weather Tykha

    Today, 26 January, Sunday

    Time Temperature Precipitation Wind Pressure Humidity
    00:00 -4°C° 0 mm 1 mps 709 mmHg 80%
    01:00 -4°C° 0 mm 1 mps 709 mmHg 80%
    02:00 -4°C° 0 mm 1 mps 709 mmHg 81%
    03:00 -4°C° 0 mm 1 mps 709 mmHg 81%
    04:00 -4°C° 0 mm 1 mps 709 mmHg 82%
    05:00 -4°C° 0 mm 1 mps 709 mmHg 82%
    06:00 -4°C° 0 mm 1 mps 709 mmHg 83%
    07:00 -3°C° 0 mm 1 mps 709 mmHg 83%
    08:00 -3°C° 0 mm 1 mps 709 mmHg 83%
    09:00 -2°C° 0 mm 1 mps 709 mmHg 81%
    10:00 -1°C° 0 mm 1 mps 710 mmHg 79%
    11:00 0°C° 0 mm 1 mps 710 mmHg 76%
    12:00 +1°C° 0 mm 1 mps 710 mmHg 75%
    13:00 +1°C° 0 mm 1 mps 709 mmHg 75%
    14:00 +2°C° 0 mm 1 mps 709 mmHg 74%
    15:00 +1°C° 0 mm 1 mps 709 mmHg 78%
    16:00 0°C° 0 mm 1 mps 708 mmHg 83%
    17:00 0°C° 0 mm 1 mps 708 mmHg 88%
    18:00 -1°C° 0 mm 1 mps 708 mmHg 89%
    19:00 -1°C° 0 mm 1 mps 708 mmHg 90%
    20:00 -1°C° 0 mm 1 mps 708 mmHg 91%
    21:00 -1°C° 0 mm 1 mps 708 mmHg 92%
    22:00 -1°C° 0 mm 1 mps 707 mmHg 92%
    23:00 0°C° 0 mm 1 mps 707 mmHg 92%

    Tomorrow, 27 January, Monday

    Time Temperature Precipitation Wind Pressure Humidity
    00:00 0°C° 0 mm 1 mps 707 mmHg 92%
    01:00 0°C° 0 mm 1 mps 707 mmHg 92%
    02:00 0°C° 0 mm 1 mps 707 mmHg 93%
    03:00 0°C° 0 mm 1 mps 707 mmHg 93%
    04:00 0°C° 0 mm 1 mps 706 mmHg 94%
    05:00 -1°C° 0 mm 1 mps 706 mmHg 94%
    06:00 0°C° 0 mm 1 mps 706 mmHg 94%
    07:00 0°C° 0 mm 1 mps 706 mmHg 94%
    08:00 0°C° 0 mm 1 mps 706 mmHg 94%
    09:00 +1°C° 0 mm 1 mps 706 mmHg 92%
    10:00 +2°C° 0 mm 1 mps 706 mmHg 90%
    11:00 +3°C° 0 mm 1 mps 706 mmHg 88%
    12:00 +4°C° 0 mm 1 mps 706 mmHg 87%
    13:00 +4°C° 0 mm 1 mps 706 mmHg 86%
    14:00 +5°C° 0 mm 1 mps 705 mmHg 85%
    15:00 +4°C° 0 mm 1 mps 705 mmHg 88%
    16:00 +3°C° 0 mm 1 mps 705 mmHg 91%
    17:00 +2°C° 0 mm 1 mps 705 mmHg 94%
    18:00 +2°C° 0 mm 1 mps 705 mmHg 94%
    19:00 +2°C° 0 mm 1 mps 704 mmHg 94%
    20:00 +1°C° 0 mm 1 mps 704 mmHg 94%
    21:00 +1°C° 0 mm 1 mps 704 mmHg 94%
    22:00 +1°C° 0 mm 1 mps 704 mmHg 94%
    23:00 +1°C° 0 mm 1 mps 704 mmHg 94%

    Day after tomorrow, 28 January, Tuesday

    Time Temperature Precipitation Wind Pressure Humidity
    00:00 +1°C° 0 mm 1 mps 704 mmHg 94%
    01:00 -1°C° 0 mm 2 mps 703 mmHg 94%
    02:00 -1°C° 0 mm 2 mps 703 mmHg 93%
    03:00 -1°C° 0 mm 2 mps 702 mmHg 93%
    04:00 -1°C° 0 mm 2 mps 702 mmHg 92%
    05:00 -1°C° 0 mm 3 mps 702 mmHg 92%
    06:00 -1°C° 0 mm 3 mps 701 mmHg 90%
    07:00 -2°C° 0 mm 4 mps 701 mmHg 89%
    08:00 -2°C° 0 mm 4 mps 701 mmHg 88%
    09:00 -1°C° 0 mm 4 mps 701 mmHg 84%
    10:00 0°C° 0 mm 5 mps 700 mmHg 81%
    11:00 0°C° 0 mm 5 mps 700 mmHg 78%
    12:00 0°C° 0 mm 5 mps 699 mmHg 79%
    13:00 -1°C° 0 mm 6 mps 698 mmHg 80%
    14:00 -1°C° 0 mm 6 mps 698 mmHg 80%
    15:00 0°C° 0.1 mm 5 mps 697 mmHg 83%
    16:00 0°C° 0.1 mm 5 mps 697 mmHg 85%
    17:00 -1°C° 0.1 mm 5 mps 696 mmHg 87%
    18:00 -1°C° 0.6 mm 4 mps 696 mmHg 89%
    19:00 -1°C° 0.6 mm 4 mps 695 mmHg 91%
    20:00 -1°C° 0.6 mm 4 mps 695 mmHg 93%
    21:00 -1°C° 0.5 mm 4 mps 694 mmHg 93%
    22:00 +1°C° 0.5 mm 3 mps 694 mmHg 94%
    23:00 +1°C° 0.5 mm 3 mps 693 mmHg 94%

    29 January, Wednesday

    Time Temperature Precipitation Wind Pressure Humidity
    00:00 +1°C° 0.5 mm 2 mps 693 mmHg 94%
    01:00 +1°C° 0.5 mm 2 mps 692 mmHg 95%
    02:00 +2°C° 0.5 mm 1 mps 691 mmHg 96%
    03:00 +2°C° 1.7 mm 1 mps 691 mmHg 97%
    04:00 +1°C° 1.7 mm 1 mps 690 mmHg 98%
    05:00 +1°C° 1.7 mm 1 mps 690 mmHg 98%
    06:00 -1°C° 3.3 mm 3 mps 690 mmHg 98%
    07:00 -3°C° 3.3 mm 4 mps 690 mmHg 97%
    08:00 -5°C° 3.3 mm 5 mps 690 mmHg 97%
    09:00 -5°C° 0.8 mm 5 mps 691 mmHg 95%
    10:00 -5°C° 0.8 mm 6 mps 691 mmHg 94%
    11:00 -5°C° 0.8 mm 6 mps 692 mmHg 92%
    12:00 -4°C° 0.1 mm 6 mps 693 mmHg 88%
    13:00 -4°C° 0.1 mm 5 mps 693 mmHg 85%
    14:00 -2°C° 0.1 mm 5 mps 694 mmHg 81%
    15:00 -2°C° 0 mm 4 mps 694 mmHg 83%
    16:00 -3°C° 0 mm 4 mps 694 mmHg 85%
    17:00 -2°C° 0 mm 3 mps 695 mmHg 87%
    18:00 -4°C° 0 mm 3 mps 695 mmHg 88%
    19:00 -4°C° 0 mm 3 mps 695 mmHg 90%
    20:00 -5°C° 0 mm 3 mps 695 mmHg 91%
    21:00 -5°C° 0.1 mm 3 mps 696 mmHg 91%
    22:00 -5°C° 0.1 mm 3 mps 696 mmHg 92%
    23:00 -5°C° 0.1 mm 3 mps 696 mmHg 93%

    30 January, Thursday

    Time Temperature Precipitation Wind Pressure Humidity
    00:00 -5°C° 0.2 mm 4 mps 696 mmHg 93%
    01:00 -5°C° 0.2 mm 4 mps 696 mmHg 94%
    02:00 -5°C° 0.2 mm 4 mps 696 mmHg 94%
    03:00 -6°C° 1 mm 5 mps 696 mmHg 94%
    04:00 -5°C° 1 mm 5 mps 696 mmHg 94%
    05:00 -5°C° 1 mm 6 mps 696 mmHg 95%
    06:00 -5°C° 0.6 mm 6 mps 697 mmHg 94%
    07:00 -5°C° 0.6 mm 6 mps 697 mmHg 94%
    08:00 -5°C° 0.6 mm 5 mps 698 mmHg 94%
    09:00 -5°C° 0.5 mm 5 mps 698 mmHg 95%
    10:00 -5°C° 0.5 mm 6 mps 699 mmHg 95%
    11:00 -4°C° 0.5 mm 6 mps 700 mmHg 95%
    12:00 -4°C° 0.2 mm 6 mps 700 mmHg 93%
    13:00 -4°C° 0.2 mm 6 mps 700 mmHg 90%
    14:00 -4°C° 0.2 mm 6 mps 701 mmHg 88%
    15:00 -5°C° 0.1 mm 6 mps 701 mmHg 89%
    16:00 -5°C° 0.1 mm 5 mps 701 mmHg 90%
    17:00 -5°C° 0.1 mm 5 mps 701 mmHg 92%
    18:00 -4°C° 0 mm 4 mps 702 mmHg 92%
    19:00 -5°C° 0 mm 4 mps 702 mmHg 93%
    20:00 -5°C° 0 mm 3 mps 702 mmHg 93%
    21:00 -5°C° 0.2 mm 4 mps 703 mmHg 94%
    22:00 -4°C° 0.2 mm 4 mps 703 mmHg 95%
    23:00 -4°C° 0.2 mm 4 mps 704 mmHg 96%

    31 January, Friday

    Time Temperature Precipitation Wind Pressure Humidity
    00:00 -4°C° 0.2 mm 4 mps 704 mmHg 95%
    01:00 -4°C° 0.2 mm 3 mps 704 mmHg 94%
    02:00 -4°C° 0.2 mm 3 mps 704 mmHg 93%
    03:00 -4°C° 0.1 mm 3 mps 704 mmHg 93%
    04:00 -5°C° 0.1 mm 3 mps 704 mmHg 94%
    05:00 -5°C° 0.1 mm 4 mps 704 mmHg 94%
    06:00 -5°C° 0 mm 3 mps 705 mmHg 93%
    07:00 -5°C° 0 mm 3 mps 705 mmHg 91%
    08:00 -5°C° 0 mm 3 mps 705 mmHg 90%
    09:00 -4°C° 0 mm 4 mps 705 mmHg 90%
    10:00 -4°C° 0 mm 4 mps 705 mmHg 89%
    11:00 -3°C° 0 mm 4 mps 706 mmHg 89%
    12:00 -3°C° 0 mm 4 mps 706 mmHg 89%
    13:00 -3°C° 0 mm 4 mps 705 mmHg 89%
    14:00 -2°C° 0 mm 4 mps 705 mmHg 89%
    15:00 -2°C° 0 mm 3 mps 705 mmHg 89%
    16:00 -2°C° 0 mm 3 mps 705 mmHg 89%
    17:00 -2°C° 0 mm 2 mps 705 mmHg 89%
    18:00 -3°C° 0 mm 2 mps 705 mmHg 90%
    19:00 -4°C° 0 mm 2 mps 705 mmHg 90%
    20:00 -5°C° 0 mm 2 mps 705 mmHg 90%
    21:00 -5°C° 0 mm 2 mps 706 mmHg 90%
    22:00 -5°C° 0 mm 2 mps 706 mmHg 90%
    23:00 -5°C° 0 mm 2 mps 706 mmHg 90%
    Show more